Date,TemperatureHighF,TemperatureAvgF,TemperatureLowF,DewpointHighF,DewpointAvgF,DewpointLowF,HumidityHigh,HumidityAvg,HumidityLow,PressureMaxIn,PressureMinIn,WindSpeedMaxMPH,WindSpeedAvgMPH,GustSpeedMaxMPH,PrecipitationSumIn
2013-1-1,30,26,19,28,22,14,93,86,76,29.95,29.85,8,1,11,0.00
2013-1-2,22,15,8,15,10,5,91,82,70,30.12,29.93,8,1,9,0.00
2013-1-3,29,18,4,21,13,2,91,80,61,30.10,30.01,13,2,17,0.00
2013-1-4,30,26,22,21,19,16,83,74,63,30.10,30.00,17,6,23,0.00
2013-1-5,35,28,20,25,21,15,83,76,64,30.24,29.98,8,2,11,0.01
2013-1-6,36,33,30,31,28,25,91,81,74,30.08,29.82,10,2,13,0.04
2013-1-7,34,29,24,27,24,21,92,84,69,30.31,30.08,9,2,12,0.01
2013-1-8,42,31,21,28,24,19,91,77,55,30.21,30.10,7,1,10,0.04
2013-1-9,46,38,32,38,31,26,87,75,65,30.33,30.05,10,3,20,0.05
2013-1-10,38,33,24,29,27,23,95,81,67,30.45,30.11,12,3,16,0.00
2013-1-11,54,45,37,51,40,28,96,84,65,30.11,29.75,9,3,14,0.30
2013-1-12,59,54,48,55,52,46,97,92,82,29.89,29.73,10,2,14,0.02
2013-1-13,65,60,42,57,55,40,94,84,73,29.76,29.58,16,3,24,0.11
2013-1-14,42,31,23,39,26,20,93,81,72,30.24,29.76,22,2,22,0.00
2013-1-15,31,26,20,23,21,18,92,80,69,30.26,29.94,5,0,11,0.00
2013-1-16,33,30,28,29,26,22,93,84,74,29.96,29.75,9,2,13,0.00
2013-1-17,34,31,27,28,26,19,86,81,70,30.05,29.86,18,2,22,0.00
2013-1-18,32,24,12,20,15,8,88,68,54,30.34,30.05,13,4,19,0.00
2013-1-19,50,41,31,27,23,20,64,50,33,30.06,29.62,13,5,25,0.00
2013-1-20,45,30,20,32,18,11,70,62,51,29.99,29.57,19,7,31,0.00
2013-1-21,21,16,7,16,10,1,89,77,69,29.97,29.79,17,4,21,0.00
2013-1-22,11,5,-2,2,-2,-6,88,74,55,30.18,29.95,15,4,19,0.00
2013-1-23,14,7,0,8,2,-5,89,78,64,30.19,29.97,9,2,13,0.00
2013-1-24,22,12,4,11,5,-2,90,73,40,30.44,29.96,10,1,14,0.00
2013-1-25,16,12,9,13,8,4,89,82,72,30.40,29.91,9,2,14,0.00
2013-1-26,26,20,15,20,16,12,91,84,65,30.32,29.97,9,2,15,0.00
2013-1-27,29,20,6,20,14,3,91,77,63,30.41,30.16,10,2,12,0.00
2013-1-28,47,39,27,46,37,19,97,93,70,30.17,29.83,12,4,18,0.46
2013-1-29,59,53,47,54,50,46,97,91,77,29.90,29.55,11,3,16,0.12
2013-1-30,64,56,35,56,51,33,93,83,71,29.55,28.99,21,6,29,0.45
2013-1-31,35,24,17,33,19,12,93,79,68,29.71,29.10,25,9,32,0.01
2013-2-1,17,13,10,13,7,3,84,76,68,30.19,29.70,18,6,24,0.00
2013-2-2,22,16,8,19,12,3,91,84,74,30.18,29.85,11,2,14,0.00
2013-2-3,21,19,16,19,14,11,92,82,69,29.90,29.72,15,3,18,0.00
2013-2-4,25,19,14,20,15,9,92,85,79,29.93,29.74,8,2,17,0.00
2013-2-5,27,24,21,24,21,17,93,89,74,29.81,29.71,8,1,12,0.00
2013-2-6,31,24,15,24,17,9,91,75,51,30.19,29.81,9,2,14,0.05
2013-2-7,43,30,15,29,22,9,81,72,57,30.16,29.78,11,3,15,0.02
2013-2-8,36,30,24,34,27,20,93,88,81,30.05,29.63,15,5,27,0.15
2013-2-9,33,24,18,20,18,14,86,76,56,30.27,30.05,14,2,20,0.00
2013-2-10,44,32,18,33,21,13,85,65,43,30.20,29.75,9,3,16,0.01
2013-2-11,53,42,33,44,35,24,95,77,56,29.75,29.51,23,7,26,0.00
2013-2-12,38,30,24,27,24,21,91,76,63,29.92,29.75,15,4,19,0.00
2013-2-13,33,27,20,27,23,19,94,86,78,29.78,29.57,6,0,8,0.00
2013-2-14,39,32,23,35,29,21,93,90,79,29.78,29.70,12,3,20,0.01
2013-2-15,36,31,22,29,25,18,89,77,63,29.94,29.77,9,3,20,0.00
2013-2-16,28,22,15,19,15,9,92,76,49,29.92,29.82,7,1,12,0.00
2013-2-17,21,15,5,16,9,1,90,77,55,30.13,29.81,13,4,17,0.00
2013-2-18,43,24,5,31,13,1,90,65,50,30.15,29.69,13,6,16,0.00
2013-2-19,44,32,16,37,27,13,92,81,59,29.81,29.49,20,7,28,0.27
2013-2-20,20,17,15,14,11,9,85,78,65,30.09,29.81,16,6,22,0.00
2013-2-21,25,19,17,16,13,11,89,79,67,30.23,30.07,12,3,14,0.00
2013-2-22,35,28,18,33,25,13,96,87,73,30.17,29.83,17,5,23,0.01
2013-2-23,38,33,25,33,30,22,96,87,73,29.86,29.72,8,1,10,0.00
2013-2-24,30,28,24,25,22,19,91,81,70,30.00,29.73,11,3,14,0.00
2013-2-25,40,31,19,28,23,18,94,75,54,30.09,29.91,10,2,14,0.00
2013-2-26,37,33,30,34,28,22,93,80,65,29.93,29.40,23,10,30,0.92
2013-2-27,40,36,32,36,34,29,95,92,84,29.51,29.37,13,3,18,0.29
2013-2-28,33,31,29,31,29,27,94,90,85,29.70,29.44,12,3,15,0.00
2013-3-1,29,27,24,27,23,19,93,84,76,29.86,29.70,9,3,13,0.00
2013-3-2,27,24,22,22,20,18,90,84,71,29.84,29.80,9,3,14,0.00
2013-3-3,26,22,20,22,19,16,90,86,76,29.89,29.81,11,3,12,0.00
2013-3-4,34,26,18,22,18,14,86,75,57,29.99,29.89,11,2,16,0.00
2013-3-5,40,29,18,25,19,14,87,68,39,29.97,29.52,19,5,25,0.02
2013-3-6,42,34,30,32,29,24,95,81,61,29.99,29.52,18,4,23,0.07
2013-3-7,40,33,30,32,28,26,92,83,61,30.17,29.98,11,2,17,0.00
2013-3-8,35,30,23,29,25,21,93,84,75,30.29,30.17,8,2,14,0.00
2013-3-9,53,36,22,34,27,20,95,72,42,30.29,30.00,11,2,13,0.00
2013-3-10,69,54,43,39,33,27,57,46,31,30.00,29.75,10,3,16,0.00
2013-3-11,58,53,44,48,38,33,92,59,42,29.75,29.45,13,4,19,0.51
2013-3-12,44,36,32,41,31,27,91,82,77,29.83,29.57,12,4,17,0.06
2013-3-13,32,29,25,28,24,18,94,82,65,30.00,29.76,18,5,22,0.00
2013-3-14,36,28,20,22,20,16,85,72,49,30.09,29.99,15,4,19,0.00
2013-3-15,44,35,26,36,28,20,92,75,65,29.99,29.69,15,3,17,0.04
2013-3-16,36,32,27,35,30,24,95,94,89,29.84,29.50,8,2,13,0.11
2013-3-17,32,29,26,26,24,20,91,81,67,30.06,29.84,9,1,10,0.00
2013-3-18,42,32,27,41,30,20,97,89,74,30.03,29.51,15,6,22,0.05
2013-3-19,43,32,27,42,25,18,97,77,65,29.81,29.53,19,7,25,0.02
2013-3-20,32,27,21,21,19,17,89,70,54,29.81,29.72,16,5,20,0.00
2013-3-21,26,21,14,22,15,8,89,76,61,29.78,29.72,14,4,19,0.00
2013-3-22,33,25,23,22,19,18,88,80,63,29.88,29.77,14,6,17,0.00
2013-3-23,43,31,19,27,22,16,92,72,48,29.91,29.85,9,1,12,0.00
2013-3-24,37,31,25,26,22,20,85,72,57,29.88,29.36,17,5,23,0.00
2013-3-25,38,32,30,36,30,26,95,94,71,29.64,29.28,16,4,26,0.23
2013-3-26,37,33,30,32,30,28,94,88,77,29.93,29.64,11,2,18,0.01
2013-3-27,40,35,31,30,29,26,94,80,58,30.02,29.92,15,4,22,0.03
2013-3-28,42,36,33,31,29,27,84,75,62,30.12,29.99,10,3,13,0.00
2013-3-29,50,39,28,31,27,22,88,65,38,30.12,30.02,10,2,15,0.00
2013-3-30,55,40,25,28,23,19,81,55,28,30.10,29.85,9,1,12,0.00
2013-3-31,48,44,39,44,35,24,91,73,51,29.85,29.53,8,2,15,0.05
2013-4-1,45,37,30,41,25,11,91,64,33,29.87,29.52,15,5,23,0.01
2013-4-2,30,27,26,17,16,15,66,62,55,30.05,30.03,2,0,4,0.00
2013-4-3,37,29,21,20,16,12,80,57,38,30.28,30.05,15,2,22,0.00
2013-4-4,40,24,18,18,14,12,77,66,32,30.26,30.08,9,1,10,0.00
2013-4-5,51,38,27,32,23,16,73,55,37,30.05,29.78,17,3,17,0.00
2013-4-6,57,37,20,22,16,10,85,51,16,30.14,29.82,15,4,15,0.00
2013-4-7,70,58,44,45,36,16,77,47,24,29.83,29.68,19,5,28,0.00
2013-4-8,71,56,38,52,44,34,88,66,44,29.86,29.70,14,2,18,0.00
2013-4-9,79,66,48,57,51,42,82,62,43,29.91,29.69,12,3,17,0.00
2013-4-10,75,65,56,65,58,54,95,78,58,29.74,29.59,12,2,33,1.79
2013-4-11,62,53,46,58,51,45,97,94,84,29.71,29.39,16,3,21,0.50
2013-4-12,58,48,39,57,45,34,96,87,68,29.69,29.30,17,4,22,0.37
2013-4-13,44,40,34,35,33,29,86,76,67,29.88,29.68,12,4,21,0.00
2013-4-14,58,44,28,40,33,26,92,68,47,30.01,29.84,11,2,15,0.00
2013-4-15,68,58,49,51,45,37,71,62,53,29.90,29.80,13,3,18,0.00
2013-4-16,75,60,48,60,52,47,94,78,59,30.00,29.82,11,3,17,0.37
2013-4-17,66,55,46,53,46,42,96,74,46,30.09,29.93,10,2,16,0.00
2013-4-18,84,70,58,63,57,53,90,66,40,29.91,29.51,25,8,25,0.00
2013-4-19,72,56,38,59,46,30,91,70,53,29.67,29.24,19,7,26,0.26
2013-4-20,42,37,28,32,27,23,90,69,49,30.26,29.67,18,5,23,0.01
2013-4-21,50,37,23,30,24,20,92,64,36,30.46,30.26,13,2,19,0.00
2013-4-22,63,49,34,38,31,25,82,52,35,30.32,30.08,11,3,18,0.00
2013-4-23,71,55,38,42,36,28,78,51,31,30.08,29.75,9,3,15,0.00
2013-4-24,59,49,35,54,43,32,93,81,47,29.99,29.53,18,3,23,0.69
2013-4-25,54,41,30,40,34,29,95,78,45,30.20,29.99,13,2,28,0.03
2013-4-26,58,44,30,38,32,28,96,67,33,30.33,30.20,8,1,10,0.01
2013-4-27,72,55,38,41,34,30,74,48,24,30.24,29.95,8,2,13,0.00
2013-4-28,57,53,48,53,47,38,95,81,52,29.96,29.73,8,2,13,0.43
2013-4-29,64,56,51,57,53,50,95,90,76,29.83,29.73,8,1,10,0.11
2013-4-30,72,61,49,58,53,48,97,76,51,29.98,29.83,11,2,15,0.01
2013-5-1,76,64,51,57,51,42,90,66,43,30.10,29.97,11,3,16,0.00
2013-5-2,75,63,49,51,41,33,66,45,22,30.15,30.00,16,3,18,0.00
2013-5-3,75,63,51,46,41,36,66,47,29,30.04,29.93,15,5,23,0.00
2013-5-4,69,59,48,44,41,37,72,51,33,29.99,29.89,17,5,21,0.00
2013-5-5,72,60,47,42,36,24,75,45,18,29.94,29.82,21,6,23,0.00
2013-5-6,71,59,47,53,45,32,78,59,40,29.88,29.80,14,4,24,0.00
2013-5-7,70,62,55,56,53,51,86,74,54,29.85,29.77,17,5,20,0.00
2013-5-8,72,62,55,55,52,49,87,71,46,29.80,29.73,12,2,18,0.02
2013-5-9,77,63,52,58,50,40,96,68,27,29.80,29.73,8,1,15,0.00
2013-5-10,73,64,58,63,56,43,93,77,54,29.80,29.62,11,1,15,0.14
2013-5-11,60,51,46,58,49,43,96,93,81,29.68,29.57,13,4,23,0.10
2013-5-12,50,43,32,42,33,28,95,69,48,29.91,29.67,19,5,25,0.00
2013-5-13,39,33,30,30,28,27,92,84,63,29.92,29.90,3,0,9,0.00
2013-5-14,60,55,51,41,41,39,69,58,48,29.76,29.70,7,3,11,0.00
2013-5-15,83,67,50,63,53,41,82,64,40,29.70,29.55,16,3,22,0.01
2013-5-18,82,64,54,60,50,43,79,61,37,29.95,29.83,12,5,15,0.00
2013-5-19,79,69,58,66,61,56,94,78,60,29.89,29.76,10,2,12,0.00
2013-5-20,84,73,60,70,65,58,95,78,57,29.82,29.69,6,1,11,0.00
2013-5-21,86,75,66,70,66,63,96,76,48,29.74,29.60,8,1,14,0.00
2013-5-22,71,70,69,64,64,63,81,80,79,29.63,29.60,3,0,7,0.00
2013-5-23,73,64,43,64,59,41,94,85,62,29.77,29.55,18,4,18,0.23
2013-5-24,44,41,31,41,36,29,94,82,68,30.15,29.77,12,4,18,0.02
2013-5-25,59,45,28,40,34,27,96,69,39,30.20,30.10,11,2,17,0.00
2013-5-26,65,50,32,42,35,30,94,63,31,30.15,30.07,10,1,14,0.00
2013-5-27,58,51,39,49,42,34,85,71,51,30.11,29.92,12,2,13,0.02
2013-5-28,81,66,52,68,59,48,94,80,58,29.92,29.76,8,2,14,0.24
2013-5-29,84,74,66,66,62,59,78,66,48,29.87,29.79,10,2,18,0.00
2013-5-30,88,76,64,69,64,60,88,68,45,29.97,29.86,9,1,12,0.00
2013-5-31,87,76,66,68,64,62,92,68,46,29.89,29.75,10,1,18,0.06
2013-6-1,83,74,64,70,66,62,93,77,61,29.79,29.57,11,2,19,0.00
2013-6-2,75,69,63,66,62,56,95,78,59,29.70,29.55,16,2,25,0.63
2013-6-3,63,54,43,57,49,39,89,81,52,29.91,29.68,5,1,11,0.00
2013-6-4,70,56,39,53,45,37,95,69,47,30.00,29.91,5,1,11,0.00
2013-6-5,80,64,47,60,49,43,89,62,35,29.98,29.74,11,2,14,0.00
2013-6-6,67,63,56,65,61,51,96,92,71,29.75,29.58,5,0,12,1.07
2013-6-7,62,57,54,58,55,52,97,93,84,29.70,29.62,7,1,10,0.00
2013-6-8,71,61,55,58,54,53,95,81,59,29.88,29.70,6,1,10,0.00
2013-6-9,78,71,60,63,60,56,86,68,57,29.98,29.81,13,4,15,0.00
2013-6-10,71,67,61,69,64,59,96,90,77,29.81,29.57,9,1,14,0.29
2013-6-11,76,67,61,66,63,59,95,86,66,29.69,29.58,9,2,17,0.02
2013-6-12,79,70,63,71,65,61,95,87,66,29.72,29.50,8,0,10,0.00
2013-6-13,72,65,58,68,61,55,96,87,68,29.64,29.30,13,3,25,0.49
2013-6-14,72,61,52,61,56,50,96,84,64,29.90,29.64,9,1,11,0.00
2013-6-15,76,62,47,59,51,43,97,73,35,29.96,29.81,5,1,8,0.00
2013-6-16,75,67,61,68,62,56,95,86,73,29.83,29.69,10,2,15,0.28
2013-6-17,76,65,62,66,63,59,97,92,60,29.78,29.71,5,1,8,0.00
2013-6-18,77,69,56,66,60,50,91,73,63,29.81,29.68,9,2,12,0.00
2013-6-19,76,62,49,55,49,45,89,66,39,29.98,29.81,12,1,15,0.00
2013-6-20,80,61,49,58,52,47,92,73,38,30.05,29.98,2,0,4,0.00
2013-6-21,85,74,57,64,58,53,86,59,41,30.07,29.96,8,1,8,0.00
2013-6-22,88,76,62,70,64,57,84,68,47,29.98,29.86,7,1,10,0.00
2013-6-23,88,77,67,72,67,64,94,73,49,29.93,29.84,8,0,11,0.00
2013-6-24,87,77,65,69,65,61,88,69,51,29.93,29.78,9,1,14,0.00
2013-6-25,87,73,65,74,67,63,95,82,61,29.84,29.67,13,2,16,0.64
2013-6-26,82,73,65,72,68,64,96,85,66,29.77,29.60,8,1,9,0.48
2013-6-27,77,70,66,69,66,64,96,90,71,29.61,29.45,5,0,11,0.48
2013-6-28,79,69,62,68,64,58,97,84,64,29.45,29.31,6,0,11,0.00
2013-6-29,78,67,59,66,62,58,96,83,59,29.50,29.35,0,0,4,0.01
2013-6-30,78,68,59,70,64,58,97,85,65,29.68,29.50,1,0,6,0.01
2013-7-1,74,68,63,68,64,61,96,89,74,29.78,29.64,5,0,12,0.06
2013-7-2,83,72,64,72,67,63,97,84,63,29.86,29.73,8,0,13,0.08
2013-7-3,85,74,67,73,68,65,95,83,61,29.96,29.85,0,0,0,0.32
2013-7-4,79,72,67,71,68,65,96,87,71,30.00,29.93,0,0,0,0.00
2013-7-5,70,69,68,68,67,66,96,95,90,29.95,29.92,0,0,0,0.02
2013-7-6,85,72,68,74,69,67,97,91,66,29.97,29.83,0,0,0,0.15
2013-7-7,79,72,66,69,66,64,95,84,67,29.90,29.81,0,0,0,0.00
2013-7-8,83,70,61,72,65,59,95,85,62,29.92,29.84,0,0,0,0.32
2013-7-9,86,73,66,76,69,65,96,90,70,29.89,29.75,8,0,17,0.54
2013-7-10,85,71,64,78,69,63,97,94,77,29.79,29.60,11,1,19,2.39
2013-7-11,76,68,57,64,61,55,96,80,55,29.84,29.71,8,1,9,0.01
2013-7-12,76,66,56,66,60,54,97,84,60,29.94,29.83,9,1,11,0.00
2013-7-13,66,65,63,62,60,58,92,85,83,29.94,29.92,8,3,10,0.00
2013-7-14,88,78,67,75,70,65,93,77,59,30.08,30.02,9,2,9,0.00
2013-7-15,91,80,69,76,71,66,94,75,55,30.14,30.04,10,1,10,0.00
2013-7-16,88,77,69,77,73,68,97,86,61,30.11,30.04,7,0,11,0.00
2013-7-17,90,80,70,78,73,69,98,82,59,30.09,29.95,6,1,9,0.00
2013-7-18,90,80,70,78,74,69,97,83,62,29.98,29.82,5,1,9,0.00
2013-7-19,88,82,72,76,72,68,94,74,62,29.82,29.65,14,4,14,0.00
2013-7-20,79,72,67,72,69,65,95,89,77,29.73,29.61,10,1,11,0.11
2013-7-21,83,72,66,72,68,64,97,88,64,29.78,29.71,5,0,6,0.01
2013-7-22,75,68,64,71,66,62,96,92,85,29.77,29.57,5,0,9,1.27
2013-7-23,82,69,63,72,66,62,97,90,70,29.60,29.49,8,1,16,0.43
2013-7-24,69,62,52,65,56,50,96,81,61,29.83,29.58,7,1,16,0.00
2013-7-25,75,61,48,59,53,47,97,78,48,29.93,29.84,7,1,11,0.00
2013-7-26,80,66,51,62,56,50,97,75,46,29.92,29.80,5,0,9,0.00
2013-7-27,71,65,61,66,61,58,92,87,83,29.80,29.67,3,0,4,0.04
2013-7-30,59,58,58,56,56,56,93,93,92,29.98,29.97,0,0,2,0.00
2013-7-31,72,65,57,68,62,55,96,90,75,29.98,29.76,5,0,5,0.08
2013-8-1,79,69,58,66,63,57,97,84,53,29.76,29.67,12,3,12,0.30
2013-8-2,72,64,55,63,58,54,97,83,61,29.81,29.71,8,1,13,0.03
2013-8-3,77,67,55,66,60,52,96,80,50,29.81,29.74,8,2,12,0.31
2013-8-4,71,61,52,59,55,51,96,81,57,29.93,29.81,9,1,15,0.01
2013-8-5,72,61,50,61,54,48,97,80,52,29.95,29.84,4,0,7,0.00
2013-8-6,80,68,56,63,58,53,94,73,50,29.85,29.78,5,0,10,0.00
2013-8-7,81,69,62,72,64,58,96,86,70,29.78,29.70,9,0,13,0.31
2013-8-8,84,72,67,74,69,66,97,92,72,29.78,29.70,4,0,9,0.17
2013-8-9,77,68,57,69,65,55,97,89,64,29.83,29.69,7,1,11,0.20
2013-8-10,79,67,56,67,60,55,95,80,60,29.92,29.84,5,0,6,0.00
2013-8-11,80,68,61,67,61,55,95,77,62,29.94,29.84,10,1,11,0.00
2013-8-12,80,69,57,68,63,56,97,83,59,29.88,29.67,6,0,10,0.00
2013-8-13,74,67,49,68,61,47,96,82,62,29.80,29.59,10,2,16,0.00
2013-8-14,67,56,47,56,50,46,96,84,61,29.99,29.80,7,1,13,0.01
2013-8-15,72,58,45,57,50,44,97,79,50,30.04,29.94,5,0,9,0.00
2013-8-16,75,64,53,58,54,50,92,73,45,30.01,29.95,7,1,10,0.00
2013-8-17,76,65,53,61,56,52,96,75,50,30.06,30.00,13,2,14,0.00
2013-8-18,74,66,59,66,61,55,93,84,73,30.03,29.94,5,0,6,0.00
2013-8-19,78,68,58,66,62,56,97,83,51,29.97,29.89,5,1,8,0.00
2013-8-20,82,75,56,68,64,54,97,69,53,30.00,29.91,9,1,9,0.01
2013-8-21,84,71,58,69,63,57,97,80,51,30.01,29.87,5,0,9,0.00
2013-8-22,81,70,63,71,66,61,96,88,70,29.90,29.78,8,1,14,0.59
2013-8-23,82,70,56,68,62,54,97,78,50,29.98,29.80,7,1,10,0.03
2013-8-24,83,65,53,62,55,51,95,74,40,30.12,29.98,6,0,11,0.00
2013-8-25,82,68,54,64,58,52,95,74,51,30.17,30.04,7,1,11,0.00
2013-8-26,83,72,60,69,63,56,91,75,57,30.06,29.82,7,1,13,0.01
2013-8-27,78,72,69,72,69,66,95,89,79,29.84,29.73,9,1,14,0.11
2013-8-28,79,73,70,74,71,68,97,93,81,29.75,29.63,7,1,11,0.12
2013-8-29,84,73,67,72,68,65,97,85,58,29.86,29.75,5,1,8,0.00
2013-8-30,85,74,62,72,67,61,98,82,58,29.82,29.63,8,1,11,0.00
2013-8-31,85,76,68,72,69,67,95,81,60,29.64,29.56,9,1,12,0.00
2013-9-1,84,74,67,72,69,66,97,86,62,29.63,29.56,6,0,11,0.00
2013-9-2,83,71,59,72,67,58,97,88,61,29.66,29.56,8,1,16,0.02
2013-9-3,65,60,51,61,56,50,97,87,70,29.87,29.65,7,1,13,0.01
2013-9-4,77,62,49,60,55,48,97,80,52,29.95,29.86,9,1,13,0.00
2013-9-5,72,63,46,58,53,44,93,74,38,30.04,29.88,8,1,14,0.00
2013-9-6,76,57,42,53,46,41,97,71,33,30.10,29.95,6,1,9,0.00
2013-9-7,79,65,48,63,53,44,87,66,45,29.96,29.76,7,1,11,0.00
2013-9-8,76,67,53,67,62,51,94,82,64,29.88,29.72,7,1,15,0.00
2013-9-9,80,66,54,73,62,51,97,87,74,29.90,29.80,6,1,18,1.18
2013-9-10,90,78,69,77,72,68,97,83,62,29.91,29.83,7,1,12,0.00
2013-9-11,88,78,72,74,72,69,95,82,60,29.92,29.77,8,1,11,0.00
2013-9-12,74,68,57,70,66,56,97,93,85,29.78,29.62,10,1,13,0.58
2013-9-13,60,56,49,56,52,47,97,89,69,29.88,29.65,7,1,16,0.18
2013-9-14,66,53,43,52,45,41,95,76,49,30.00,29.87,9,1,12,0.00
2013-9-15,69,56,43,54,49,41,94,79,55,30.02,29.89,5,0,8,0.00
2013-9-16,69,58,47,57,53,46,96,85,60,30.14,29.92,7,1,12,0.07
2013-9-17,69,53,40,52,46,39,97,78,47,30.23,30.09,9,2,11,0.01
2013-9-18,74,59,46,59,52,43,90,76,54,30.09,29.92,6,1,11,0.00
2013-9-19,73,65,61,65,61,58,95,88,73,29.95,29.82,5,0,8,0.00
2013-9-20,80,69,62,72,66,60,97,91,76,29.85,29.60,7,1,11,0.01
2013-9-21,69,63,50,68,61,49,96,93,76,29.62,29.47,7,1,14,0.95
2013-9-22,57,53,49,53,48,45,97,85,64,29.87,29.62,6,1,10,0.01
2013-9-23,59,50,40,48,45,39,96,84,61,29.99,29.86,6,0,10,0.00
2013-9-24,68,51,38,50,44,37,96,80,49,29.98,29.81,10,1,13,0.00
2013-9-25,74,56,42,54,48,41,97,79,37,29.83,29.73,9,1,10,0.01
2013-9-26,74,58,44,56,49,43,97,76,38,29.93,29.78,4,0,10,0.00
2013-9-27,72,57,46,54,50,44,97,78,49,30.02,29.93,10,1,13,0.01
2013-9-28,74,61,52,59,54,50,95,78,54,30.07,29.95,9,2,12,0.00
2013-9-29,73,61,50,61,55,48,93,82,63,29.95,29.82,8,1,8,0.00
2013-9-30,68,61,57,60,58,55,96,89,75,29.85,29.80,6,1,11,0.00
2013-10-1,76,64,56,63,58,55,97,83,61,29.90,29.81,7,1,13,0.00
2013-10-2,80,67,58,67,61,56,95,83,58,29.91,29.84,7,1,11,0.01
2013-10-3,78,66,61,70,63,59,96,91,72,29.91,29.81,5,0,18,0.58
2013-10-4,79,69,63,68,65,62,96,88,64,29.90,29.84,8,1,12,0.00
2013-10-5,77,68,64,70,66,62,96,92,77,29.88,29.78,4,0,10,0.85
2013-10-6,82,71,65,69,65,61,97,82,56,29.78,29.52,9,1,16,0.01
2013-10-7,65,53,47,63,48,43,95,84,70,29.96,29.52,14,2,18,0.72
2013-10-8,65,52,40,52,44,39,96,80,46,30.14,29.96,11,1,13,0.00
2013-10-9,68,54,43,48,44,41,95,72,40,30.16,30.06,9,2,15,0.01
2013-10-10,70,54,42,51,44,39,90,71,40,30.07,29.93,7,1,9,0.00
2013-10-11,69,56,45,57,49,43,93,78,59,29.96,29.89,10,1,11,0.00
2013-10-12,74,62,48,64,54,44,88,77,60,29.96,29.89,8,1,11,0.00
2013-10-13,70,61,58,61,57,56,96,87,72,30.09,29.96,9,2,9,0.68
2013-10-14,67,57,49,56,51,43,95,80,58,30.15,30.05,6,1,10,0.00
2013-10-15,64,56,45,60,53,43,95,90,79,30.06,29.79,4,0,8,0.00
2013-10-16,63,59,51,61,57,49,96,93,83,29.79,29.65,10,1,13,0.37
2013-10-17,59,49,40,51,46,39,96,91,69,29.74,29.58,12,1,13,0.38
2013-10-18,60,50,41,47,43,40,95,79,50,29.84,29.72,11,2,17,0.00
2013-10-19,54,46,39,47,42,38,93,86,75,29.79,29.55,14,1,16,0.13
2013-10-20,57,47,36,43,39,34,94,76,57,29.86,29.76,11,2,16,0.01
2013-10-21,64,52,41,46,40,36,85,65,41,29.86,29.68,11,1,14,0.00
2013-10-22,51,42,33,47,35,30,94,78,50,29.80,29.67,9,2,15,0.20
2013-10-23,42,37,30,38,33,29,94,86,70,29.78,29.61,9,1,13,0.03
2013-10-24,43,35,30,33,30,28,93,83,61,30.00,29.77,14,2,19,0.01
2013-10-25,46,37,31,35,31,29,94,80,55,30.18,30.00,10,2,16,0.03
2013-10-26,45,39,31,36,29,26,83,69,50,30.08,29.72,13,2,19,0.00
2013-10-27,49,39,30,37,32,29,95,79,54,29.94,29.83,8,1,13,0.00
2013-10-28,58,43,31,41,34,29,93,73,40,30.16,29.94,6,0,7,0.00
2013-10-29,57,43,32,42,37,30,96,80,53,30.24,30.09,6,0,9,0.00
2013-10-30,65,53,40,53,45,36,92,74,55,30.09,29.90,5,0,8,0.00
2013-10-31,65,60,55,58,56,53,95,88,70,29.90,29.19,15,3,22,0.41
2013-11-1,64,57,51,58,53,45,92,86,75,29.42,29.12,15,5,26,0.18
2013-11-2,49,44,41,43,41,39,94,89,76,29.83,29.58,11,3,16,0.12
2013-11-3,47,38,30,40,33,25,96,83,57,30.31,29.83,7,1,10,0.07
2013-11-4,42,35,27,27,25,22,84,67,46,30.39,30.27,12,4,16,0.00
2013-11-5,59,47,39,40,34,27,71,62,47,30.32,30.13,6,1,9,0.00
2013-11-6,68,55,41,56,46,32,95,73,55,30.13,29.71,11,2,19,0.38
2013-11-7,57,42,37,56,37,27,95,83,64,29.95,29.71,17,4,20,0.43
2013-11-8,40,34,27,32,28,24,92,79,61,30.14,29.92,10,2,19,0.00
2013-11-9,56,43,29,36,30,25,85,62,37,30.12,29.78,15,3,22,0.00
2013-11-10,50,42,32,39,34,28,84,73,59,30.12,29.79,19,6,23,0.00
2013-11-11,46,37,28,36,30,26,93,78,52,30.11,29.88,12,1,15,0.07
2013-11-12,34,29,25,29,25,22,94,86,68,30.34,30.00,10,2,13,0.08
2013-11-13,35,28,23,24,22,18,93,76,62,30.40,30.18,9,2,14,0.00
2013-11-14,48,36,27,24,22,19,74,57,38,30.18,29.99,11,2,14,0.01
2013-11-15,53,44,37,33,25,20,66,49,32,30.02,29.94,9,1,15,0.00
2013-11-16,58,49,38,49,43,32,90,80,66,30.05,29.81,10,2,12,0.00
2013-11-17,59,56,50,57,53,45,94,89,69,29.81,29.29,16,5,35,0.82
2013-11-18,50,44,35,42,36,26,86,73,58,29.92,29.42,29,12,29,0.00
2013-11-19,38,32,23,28,25,20,90,74,60,30.27,29.92,9,2,16,0.00
2013-11-20,45,34,27,24,21,16,86,60,32,30.32,30.19,13,5,20,0.00
2013-11-21,48,39,32,40,30,18,88,73,51,30.26,30.05,6,2,10,0.11
2013-11-22,50,46,33,49,44,30,96,93,73,30.12,29.92,18,5,18,0.09
2013-11-23,34,26,16,30,23,13,91,86,60,30.23,30.02,16,4,20,0.00
2013-11-24,23,16,10,14,10,5,90,78,54,30.40,30.23,12,3,19,0.00
2013-11-25,33,23,11,26,13,7,91,68,48,30.36,30.07,10,2,12,0.00
2013-11-26,32,30,28,30,28,26,95,93,91,30.08,29.66,3,0,6,0.00
2013-11-27,30,25,19,28,22,14,95,87,72,29.99,29.62,0,0,0,0.00
2013-11-28,27,20,7,20,15,4,91,81,63,30.30,29.99,0,0,0,0.00
2013-11-29,35,23,12,24,18,10,94,81,55,30.51,30.30,0,0,0,0.11
2013-11-30,39,28,20,27,22,16,87,77,62,30.47,30.06,6,1,9,0.06
2013-12-1,40,36,31,30,28,25,81,74,65,30.06,29.82,5,1,9,0.15
2013-12-2,41,35,31,35,31,29,94,84,76,29.82,29.70,5,0,6,0.00
2013-12-3,51,39,31,42,35,29,94,87,71,29.77,29.72,5,1,8,0.00
2013-12-4,55,47,37,48,42,35,93,84,76,29.82,29.66,8,2,11,0.00
2013-12-5,60,52,33,57,48,31,94,86,75,29.91,29.63,9,3,13,0.22
2013-12-6,33,30,25,31,28,24,94,93,90,30.16,29.86,6,1,9,0.09
2013-12-7,25,21,10,24,16,8,93,83,66,30.46,30.15,7,1,10,0.00
2013-12-8,28,21,11,26,17,8,94,84,72,30.46,29.92,15,5,18,0.00
2013-12-9,35,31,25,33,28,20,95,88,78,30.00,29.81,14,4,19,0.06
2013-12-10,26,22,18,20,14,8,91,75,48,30.13,29.89,12,4,18,0.00
2013-12-11,26,19,15,19,13,10,90,79,66,30.25,30.11,11,3,20,0.00
2013-12-12,18,13,4,13,4,0,86,67,46,30.33,30.12,16,4,19,0.00
2013-12-13,31,22,15,19,13,4,78,67,57,30.13,30.07,11,2,14,0.00
2013-12-14,35,30,26,34,27,19,96,89,73,30.10,29.50,11,3,15,0.00
2013-12-15,35,24,15,34,21,10,95,88,79,29.90,29.50,18,6,23,0.01
2013-12-16,22,17,11,19,11,8,91,77,64,30.05,29.89,9,2,13,0.00
2013-12-17,28,25,21,27,22,19,94,88,74,29.91,29.79,11,3,15,0.00
2013-12-18,28,24,21,22,20,16,90,82,72,30.05,29.90,10,3,15,0.00
2013-12-19,45,38,27,34,27,18,75,64,54,29.94,29.83,11,2,19,0.24
2013-12-20,53,47,43,51,39,29,94,77,55,29.83,29.68,14,5,14,0.08
2013-12-21,61,56,52,60,54,50,95,95,92,29.69,29.35,11,3,16,1.25
2013-12-22,66,56,45,60,51,41,96,84,67,29.77,29.28,20,5,28,0.50
2013-12-23,45,34,27,42,29,20,93,82,72,30.14,29.76,12,3,15,0.09
2013-12-24,27,17,6,22,12,4,92,81,72,30.39,30.09,11,3,17,0.00
2013-12-25,25,17,6,22,12,3,90,79,64,30.38,30.07,10,1,13,0.00
2013-12-26,33,27,21,26,21,15,90,78,64,30.19,29.98,15,3,23,0.00
2013-12-27,42,33,24,30,25,18,80,72,61,30.22,30.08,10,2,14,0.00
2013-12-28,51,41,34,34,30,26,74,65,49,30.08,29.86,12,3,17,0.00
2013-12-29,41,39,32,39,33,25,95,79,53,29.86,29.55,17,2,19,0.19
2013-12-30,32,21,17,30,18,13,92,87,74,30.06,29.71,12,2,14,0.00
2013-12-31,21,19,15,18,14,10,91,84,73,30.17,29.93,15,3,20,0.00
2014-1-1,26,21,18,21,18,15,90,87,82,30.20,29.96,7,1,8,0.00
2014-1-2,20,16,9,18,14,5,91,89,86,29.96,29.63,13,1,20,0.00